When you browse on this site, cookies collect data to enhance your experience and personalize the content and advertising you see.
Visit our Privacy Policy to learn more. By continuing to use the site, you agree to this use of cookies and data.
  • In France
  • List of Countries
  • For 7 days
  • Water Temperature
  • Satellite Maps
  • Weather Map
  • Weather Widgets
  • user-avatar
    Login

    Hourly Weather Catanih

    Today, 13 December, Thursday

    Time Temperature Precipitation Wind Pressure Humidity
    00:00 -1°C° 0.1 mm 2 mps 607 mmHg 78%
    01:00 -2°C° 0 mm 2 mps 607 mmHg 79%
    02:00 -2°C° 0 mm 2 mps 607 mmHg 80%
    03:00 -5°C° 0 mm 5 mps 607 mmHg 79%
    04:00 -4°C° 0 mm 4 mps 607 mmHg 78%
    05:00 -4°C° 0 mm 4 mps 607 mmHg 78%
    06:00 -4°C° 0 mm 4 mps 607 mmHg 77%
    07:00 -4°C° 0 mm 4 mps 608 mmHg 75%
    08:00 -4°C° 0 mm 4 mps 608 mmHg 74%
    09:00 -3°C° 0 mm 4 mps 609 mmHg 72%
    10:00 -4°C° 0 mm 5 mps 609 mmHg 69%
    11:00 -4°C° 0 mm 5 mps 610 mmHg 67%
    12:00 -2°C° 0 mm 5 mps 610 mmHg 64%
    13:00 -4°C° 0 mm 5 mps 610 mmHg 64%
    14:00 -4°C° 0 mm 5 mps 611 mmHg 63%
    15:00 -4°C° 0 mm 5 mps 611 mmHg 63%
    16:00 -4°C° 0 mm 4 mps 611 mmHg 64%
    17:00 -5°C° 0 mm 4 mps 612 mmHg 65%
    18:00 -6°C° 0 mm 3 mps 612 mmHg 66%
    19:00 -6°C° 0 mm 3 mps 612 mmHg 63%
    20:00 -6°C° 0 mm 3 mps 612 mmHg 60%
    21:00 -7°C° 0 mm 3 mps 612 mmHg 57%
    22:00 -7°C° 0 mm 3 mps 613 mmHg 57%
    23:00 -7°C° 0 mm 3 mps 613 mmHg 57%

    Tomorrow, 14 December, Friday

    Time Temperature Precipitation Wind Pressure Humidity
    00:00 -8°C° 0 mm 3 mps 613 mmHg 56%
    01:00 -8°C° 0 mm 3 mps 613 mmHg 57%
    02:00 -7°C° 0 mm 2 mps 613 mmHg 58%
    03:00 -7°C° 0 mm 2 mps 614 mmHg 59%
    04:00 -7°C° 0 mm 2 mps 614 mmHg 60%
    05:00 -8°C° 0 mm 2 mps 614 mmHg 61%
    06:00 -8°C° 0 mm 2 mps 614 mmHg 61%
    07:00 -7°C° 0 mm 2 mps 614 mmHg 59%
    08:00 -6°C° 0 mm 2 mps 615 mmHg 57%
    09:00 -4°C° 0 mm 1 mps 615 mmHg 55%
    10:00 -3°C° 0 mm 1 mps 615 mmHg 54%
    11:00 -2°C° 0 mm 1 mps 615 mmHg 53%
    12:00 -4°C° 0 mm 2 mps 615 mmHg 52%
    13:00 -2°C° 0 mm 1 mps 615 mmHg 55%
    14:00 -2°C° 0 mm 1 mps 615 mmHg 58%
    15:00 -2°C° 0 mm 1 mps 615 mmHg 60%
    16:00 -3°C° 0.1 mm 1 mps 615 mmHg 66%
    17:00 -4°C° 0.1 mm 1 mps 615 mmHg 71%
    18:00 -5°C° 0.1 mm 0 mps 615 mmHg 76%
    19:00 -4°C° 0.1 mm 1 mps 615 mmHg 76%
    20:00 -6°C° 0.1 mm 1 mps 615 mmHg 76%
    21:00 -6°C° 0.1 mm 1 mps 615 mmHg 76%
    22:00 -6°C° 0 mm 1 mps 615 mmHg 74%
    23:00 -6°C° 0 mm 1 mps 615 mmHg 73%

    Day after tomorrow, 15 December, Saturday

    Time Temperature Precipitation Wind Pressure Humidity
    00:00 -6°C° 0 mm 1 mps 615 mmHg 71%
    01:00 -6°C° 0 mm 1 mps 615 mmHg 69%
    02:00 -6°C° 0 mm 1 mps 615 mmHg 68%
    03:00 -7°C° 0 mm 1 mps 615 mmHg 66%
    04:00 -7°C° 0 mm 1 mps 615 mmHg 66%
    05:00 -7°C° 0 mm 1 mps 615 mmHg 66%
    06:00 -7°C° 0 mm 1 mps 615 mmHg 66%
    07:00 -7°C° 0 mm 1 mps 616 mmHg 62%
    08:00 -6°C° 0 mm 1 mps 617 mmHg 59%
    09:00 -4°C° 0 mm 1 mps 617 mmHg 55%
    10:00 -3°C° 0 mm 1 mps 617 mmHg 53%
    11:00 -2°C° 0 mm 1 mps 617 mmHg 50%
    12:00 -1°C° 0 mm 1 mps 618 mmHg 48%
    13:00 -2°C° 0 mm 1 mps 618 mmHg 50%
    14:00 -2°C° 0 mm 1 mps 617 mmHg 52%
    15:00 -2°C° 0 mm 1 mps 617 mmHg 53%
    16:00 -3°C° 0 mm 1 mps 617 mmHg 59%
    17:00 -4°C° 0 mm 1 mps 617 mmHg 64%
    18:00 -6°C° 0 mm 1 mps 617 mmHg 69%
    19:00 -6°C° 0 mm 1 mps 617 mmHg 67%
    20:00 -6°C° 0 mm 1 mps 617 mmHg 65%
    21:00 -6°C° 0 mm 1 mps 617 mmHg 63%
    22:00 -6°C° 0 mm 1 mps 617 mmHg 62%
    23:00 -6°C° 0 mm 1 mps 617 mmHg 61%

    16 December, Sunday

    Time Temperature Precipitation Wind Pressure Humidity
    00:00 -6°C° 0 mm 1 mps 617 mmHg 59%
    01:00 -7°C° 0 mm 1 mps 617 mmHg 60%
    02:00 -7°C° 0 mm 1 mps 617 mmHg 60%
    03:00 -7°C° 0 mm 1 mps 617 mmHg 60%
    04:00 -7°C° 0 mm 1 mps 617 mmHg 59%
    05:00 -7°C° 0 mm 1 mps 617 mmHg 59%
    06:00 -7°C° 0 mm 1 mps 617 mmHg 59%
    07:00 -6°C° 0 mm 1 mps 617 mmHg 56%
    08:00 -4°C° 0 mm 1 mps 618 mmHg 53%
    09:00 -4°C° 0 mm 1 mps 618 mmHg 50%
    10:00 -3°C° 0 mm 1 mps 618 mmHg 49%
    11:00 -2°C° 0 mm 1 mps 618 mmHg 48%
    12:00 -1°C° 0 mm 1 mps 619 mmHg 47%
    13:00 -1°C° 0 mm 1 mps 618 mmHg 51%
    14:00 -1°C° 0 mm 1 mps 618 mmHg 55%
    15:00 -3°C° 0 mm 2 mps 618 mmHg 59%
    16:00 -4°C° 0 mm 2 mps 617 mmHg 63%
    17:00 -5°C° 0 mm 2 mps 617 mmHg 67%
    18:00 -6°C° 0 mm 2 mps 617 mmHg 71%
    19:00 -6°C° 0 mm 2 mps 617 mmHg 70%
    20:00 -6°C° 0 mm 2 mps 617 mmHg 70%
    21:00 -6°C° 0 mm 2 mps 617 mmHg 69%
    22:00 -6°C° 0 mm 2 mps 617 mmHg 70%
    23:00 -6°C° 0 mm 2 mps 616 mmHg 70%

    17 December, Monday

    Time Temperature Precipitation Wind Pressure Humidity
    00:00 -6°C° 0 mm 2 mps 616 mmHg 70%
    01:00 -6°C° 0 mm 2 mps 616 mmHg 70%
    02:00 -6°C° 0 mm 2 mps 616 mmHg 71%
    03:00 -6°C° 0 mm 2 mps 616 mmHg 71%
    04:00 -7°C° 0 mm 2 mps 615 mmHg 71%
    05:00 -7°C° 0 mm 2 mps 615 mmHg 72%
    06:00 -7°C° 0 mm 2 mps 615 mmHg 72%
    07:00 -6°C° 0 mm 2 mps 615 mmHg 71%
    08:00 -5°C° 0 mm 2 mps 615 mmHg 69%
    09:00 -5°C° 0 mm 2 mps 616 mmHg 67%
    10:00 -4°C° 0 mm 2 mps 616 mmHg 67%
    11:00 -3°C° 0 mm 2 mps 616 mmHg 66%
    12:00 -2°C° 0 mm 3 mps 616 mmHg 66%
    13:00 -2°C° 0 mm 2 mps 615 mmHg 69%
    14:00 -3°C° 0 mm 2 mps 615 mmHg 72%
    15:00 -3°C° 0 mm 2 mps 615 mmHg 75%
    16:00 -4°C° 0 mm 2 mps 615 mmHg 77%
    17:00 -4°C° 0 mm 2 mps 614 mmHg 79%
    18:00 -5°C° 0 mm 2 mps 614 mmHg 81%
    19:00 -5°C° 0 mm 2 mps 614 mmHg 81%
    20:00 -5°C° 0 mm 2 mps 614 mmHg 80%
    21:00 -5°C° 0 mm 2 mps 614 mmHg 79%
    22:00 -5°C° 0 mm 2 mps 614 mmHg 79%
    23:00 -5°C° 0 mm 2 mps 614 mmHg 80%

    18 December, Tuesday

    Time Temperature Precipitation Wind Pressure Humidity
    00:00 -5°C° 0 mm 2 mps 614 mmHg 81%
    01:00 -5°C° 0 mm 2 mps 614 mmHg 83%
    02:00 -5°C° 0 mm 2 mps 614 mmHg 84%
    03:00 -5°C° 0 mm 2 mps 614 mmHg 86%
    04:00 -5°C° 0.1 mm 2 mps 614 mmHg 87%
    05:00 -3°C° 0.1 mm 1 mps 614 mmHg 88%
    06:00 -3°C° 0.1 mm 1 mps 614 mmHg 89%
    07:00 -3°C° 0.2 mm 1 mps 614 mmHg 88%
    08:00 -2°C° 0.2 mm 1 mps 614 mmHg 87%
    09:00 -2°C° 0.2 mm 1 mps 615 mmHg 87%
    10:00 -4°C° 0.2 mm 2 mps 615 mmHg 85%
    11:00 -3°C° 0.2 mm 2 mps 615 mmHg 84%
    12:00 -3°C° 0.2 mm 2 mps 615 mmHg 83%
    13:00 -3°C° 0.2 mm 2 mps 615 mmHg 84%
    14:00 -3°C° 0.2 mm 2 mps 615 mmHg 86%
    15:00 -3°C° 0.2 mm 2 mps 614 mmHg 87%
    16:00 -2°C° 0.2 mm 1 mps 615 mmHg 89%
    17:00 -2°C° 0.2 mm 1 mps 615 mmHg 91%
    18:00 -3°C° 0.2 mm 1 mps 615 mmHg 93%
    19:00 -3°C° 0.1 mm 1 mps 615 mmHg 92%
    20:00 -3°C° 0.1 mm 1 mps 615 mmHg 92%
    21:00 -3°C° 0.1 mm 1 mps 615 mmHg 91%
    22:00 -3°C° 0.1 mm 1 mps 615 mmHg 90%
    23:00 -3°C° 0.1 mm 1 mps 615 mmHg 90%
    Show more